Location: ??????
(55.0357°N, 38.6195°E)
Time: 13:39:20
(UTC+00:00)

Cosmos 1624 Rocket - Visible Passes

Search period start: 12 July 2024 00:00
Search period end: 22 July 2024 00:00
Orbit: 754 x 781 km, 74.0° (Epoch: 11 July)

Date Brightness Start Highest point End Pass type
(mag) Time Alt. Az. Time Alt. Az. Time Alt. Az.
12 Jul 5.8 21:26:34 10° SE 21:29:58 19° E 21:33:31 10° NE visible
12 Jul 4.0 23:06:49 14° SSW 23:11:21 88° WNW 23:16:38 10° NNE visible
13 Jul 6.2 20:51:26 10° ESE 20:53:19 12° E 20:55:12 10° ENE visible
13 Jul 4.2 22:30:24 17° S 22:34:19 63° ESE 22:39:31 10° NNE visible
14 Jul 5.3 00:12:08 10° WSW 00:16:47 31° NW 00:21:28 10° NNE visible
14 Jul 4.7 21:53:57 18° SSE 21:57:23 41° ESE 22:02:17 10° NE visible
14 Jul 4.8 23:34:30 10° SW 23:39:28 43° NW 23:44:30 10° NNE visible
15 Jul 5.3 21:17:28 16° SSE 21:20:32 28° E 21:24:55 10° NE visible
15 Jul 4.3 22:57:43 13° SW 23:02:15 62° WNW 23:07:30 10° NNE visible
16 Jul 5.8 20:40:58 12° SE 20:43:47 18° E 20:47:17 10° NE visible
16 Jul 4.0 22:21:13 18° SSW 22:25:08 90° WNW 22:30:26 10° NNE visible
17 Jul 5.8 00:03:43 10° W 00:07:57 24° NW 00:12:13 10° NNE visible
17 Jul 6.1 20:05:23 10° ESE 20:07:08 12° E 20:08:53 10° ENE visible
17 Jul 4.2 21:44:41 21° S 21:48:06 61° ESE 21:53:18 10° NNE visible
17 Jul 5.4 23:25:53 10° WSW 23:30:33 32° NW 23:35:17 10° NNE visible
18 Jul 4.7 21:08:08 21° SSE 21:11:10 40° ESE 21:16:05 10° NE visible
18 Jul 4.9 22:48:23 11° SW 22:53:15 44° NW 22:58:19 10° NNE visible
19 Jul 5.2 20:31:33 17° SE 20:34:20 27° E 20:38:42 10° NE visible
19 Jul 4.3 22:11:47 15° SW 22:16:02 63° WNW 22:21:18 10° NNE visible
19 Jul 6.2 23:55:29 10° W 23:59:11 19° NW 00:02:56 10° N visible
20 Jul 5.7 19:54:56 13° SE 19:57:35 18° E 20:01:02 10° NE visible
20 Jul 4.0 21:35:10 20° SSW 21:38:55 89° SE 21:44:13 10° NNE visible
20 Jul 5.9 23:17:27 10° W 23:21:43 24° NW 23:26:01 10° NNE visible
21 Jul 6.0 19:19:20 10° ESE 19:20:56 11° E 19:22:32 10° ENE visible
21 Jul 4.1 20:58:32 21° S 21:01:53 60° ESE 21:07:05 10° NNE visible
21 Jul 5.4 22:39:37 10° WSW 22:44:19 33° NW 22:49:05 10° NNE visible
